Preview of NWS' New Version of Forecast
This preview is not operational and should not be used for support decisions.
Latest weather observations around

Chanute, Chanute Martin Johnson Airport (KCNU)

Using English Units (Switch to International System of Units)
Date/ Time (CDT) Wind (mph) Vis. (mi) Weather Sky Cond. Temp (°F) Rel. Humidity Wind Chill (°F) Heat Index (°F) Pressure Precip. (in)
Air Dwpt 6 hour Altimeter (inHg) Sea level (inHg) 1 hr 3 hr 6 hr
Max Min
Jun 24 19:52 S 7 10 Clear CLR 77 61     58%   77 29.89 29.85      
Jun 24 18:52 SSW 7 10 Clear CLR 80 58     47%   80 29.88 29.85      
Jun 24 17:52 SSW 9 10 Clear CLR 81 59     47%   81 29.89 29.86      
Jun 24 16:52 WSW 7 10 Clear   81 59     47%   81 29.89 29.86      
Jun 24 15:52 W 10 10 Clear CLR 80 58     47%   80 29.9 29.87      
Jun 24 14:52 W 11 10 Clear CLR 79 58     49%   79 29.92 29.88      
Jun 24 13:52 W 11 10 Clear CLR 77 58     52%   77 29.92 29.89      
Jun 24 12:52 SW 6 10 Clear CLR 75 57     54%   75 29.93 29.91      
Jun 24 11:52 WSW 6 10 Clear CLR 74 56     53%   74 29.93 29.9      
Jun 24 10:52 N 10 10 Clear CLR 74 57     56%   74 29.9 29.88      
Jun 24 09:52 NNW 14 10 Clear CLR 71 56     59%   71 29.89 29.86      
Jun 24 08:52 NNW 13 10 Clear CLR 68 57     68%     29.87 29.85      
Jun 24 07:52 NNW 10 10 Mostly Clear FEW055 66 58     75%     29.86 29.83      
Jun 24 07:29 NNW 8 10 Mostly Cloudy SCT010 BKN046 65 59     81%     29.85        
Jun 24 06:52 NW 14 10 Cloudy BKN011 OVC043 67 62     84%     29.84 29.81      
Jun 24 05:52 NW 7 10 Mostly Cloudy SCT032 BKN040 69 65     87%     29.8 29.77      
Jun 24 04:52 WNW 7 10 Mostly Cloudy SCT006 BKN039 BKN065 69 66     90%     29.78 29.75      
Jun 24 03:52 W 8 10 Cloudy OVC005 69 66     90%     29.77 29.74      
Jun 24 03:38 W 7 10 Cloudy OVC004 69 66     90%     29.77        
Jun 24 02:52 SW 6 8 Cloudy OVC003 70 67     90%     29.78 29.75      
Jun 24 02:33 SW 8 8 Mostly Cloudy BKN003 70 67     90%     29.78        
Jun 24 02:24 SW 7 10 Partly Cloudy SCT003 69 66     90%     29.79        
Jun 24 01:52 SSW 8 10 Partly Cloudy FEW039 SCT055 69 66     90%     29.78 29.75      
Jun 24 00:52 S 7 10 Mostly Clear FEW043 69 66     90%     29.8 29.78      
Jun 23 23:52 S 7 10 Clear CLR 69 66     90%     29.81 29.79      
Jun 23 22:52 SSE 8 10 Clear CLR 69 66     90%     29.81 29.78      
Jun 23 21:52 Calm 10 Clear CLR 69 66     90%     29.78 29.76      
Jun 23 20:52 Calm 10 Clear CLR 70 67     90%     29.76 29.73      
Jun 23 19:52 SSE 5 10 Clear CLR 71 67     87%   72 29.77 29.75      
Jun 23 18:52 S 3 10 Clear CLR 73 66     79%   74 29.76 29.73      
Jun 23 17:52 WSW 6 10 Mostly Clear FEW033 73 66     79%   74 29.75 29.72      
Jun 23 17:21 WSW 5 10 Cloudy OVC030 74 66     76%   75 29.77        
Jun 23 16:52 W 8 10 Cloudy SCT022 OVC029 74 66     76%   75 29.78 29.75      
Jun 23 16:43 W 10 10 Cloudy SCT020 OVC028 74 66     76%   75 29.78        
Jun 23 16:34 W 8 10 Cloudy FEW017 OVC030 74 66     76%   75 29.78        
Jun 23 15:52 W 11 10 Mostly Cloudy SCT016 BKN027 75 66     74%   76 29.8 29.77      
Jun 23 15:09 WSW 10 10 Mostly Cloudy BKN016 73 65     76%   74 29.8        
Jun 23 14:52 WSW 13 10 Mostly Clear FEW014 73 65     76%   74 29.8 29.77      
Jun 23 13:52 SW 13 10 Clear CLR 70 64     81%     29.78 29.75      
Jun 23 12:52 S 5 10 Clear CLR 68 63     84%     29.78 29.75 0   1
Jun 23 11:52 SE 8 10 Light Rain FEW015 67 63     87%     29.79 29.76 0    
Jun 23 11:14 SE 7 10 Light Rain SCT015 67 63     87%     29.8   0    
Jun 23 10:52 SE 7 10 Light Rain BKN015 66 63     90%     29.82 29.79 0    
Jun 23 09:52 ESE 11 10 Light Rain FEW038 SCT110 66 62     87%     29.78 29.75 0 1  
Jun 23 08:52 Calm 10 Mostly Clear FEW070 67 63     87%     29.86 29.83 0    
Jun 23 07:52 NNE 15 10 Light Rain FEW034 FEW075 BKN110 66 62     87%     29.8 29.76 1    
Jun 23 07:36   4 Thunderstorms and Rain and Fog/Mist SCT014 BKN075 OVC100 66 63     90%     29.81   1    
Jun 23 07:31   2 Thunderstorms and Heavy Rain and Fog/Mist FEW007 BKN019 OVC070 66 63     90%     29.85   1    
Jun 23 07:27   1.25 Thunderstorms and Heavy Rain and Fog/Mist FEW007 BKN019 OVC045 67 64     90%     29.88   1    
Jun 23 07:22   0.75 Thunderstorms and Heavy Rain and Fog/Mist BKN011 BKN040 OVC065 67 64     90%         1    
Jun 23 07:12   0.75 Thunderstorms and Heavy Rain and Fog/Mist SCT007 BKN050 OVC085 68 64     87%         0    
Jun 23 07:10   1.5 Heavy Rain and Fog/Mist SCT010 BKN065 OVC085 68 64     87%         0    
Jun 23 07:06   9 Light Rain FEW009 BKN060 OVC085 68 65     90%         0    
Jun 23 06:52 ESE 16 10 Light Rain FEW008 BKN060 OVC090 68 64     87%     29.76   0   0
Jun 23 06:39 ESE 16 5 Rain and Fog/Mist SCT008 BKN035 OVC065 68 64     87%     29.77   0    
Jun 23 06:07 ESE 14 10 Light Rain OVC009 68 64     87%     29.8   0    
Jun 23 05:52 ESE 16 10 Light Rain BKN009 BKN045 68 64     87%     29.8 29.76 0    
Jun 23 05:06 ESE 14 10 Clear   67 64     90%     29.82   0    
Jun 23 04:52 ESE 13 10 Clear   68 64     87%     29.82 29.79 0    
Jun 23 03:52 E 11 10 Light Rain BKN008 OVC045 68 65     90%     29.83 29.79 0 0  
Jun 23 03:02 E 16 10 Light Rain BKN007 OVC039 68 65     90%     29.85   0    
Jun 23 02:52 E 15 10 Light Rain SCT007 BKN039 OVC047 68 65     90%     29.86 29.82 0    
Jun 23 02:43 E 15 10 Light Rain FEW007 BKN039 OVC046 69 65     87%     29.87   0    
Jun 23 02:06 E 15 10 Light Rain FEW006 BKN037 OVC070 69 65     87%     29.89   0    
Jun 23 01:52 E 13 10 Light Rain FEW012 BKN039 OVC070 69 66     90%     29.89 29.85 0    
Jun 23 01:39 E 13 10 Light Rain SCT010 BKN040 OVC060 69 66     90%     29.89   0    
Jun 23 01:25 E 14 10 Light Rain FEW007 BKN012 BKN041 69 66     90%     29.9   0    
Jun 23 01:11 E 11 10 Light Rain FEW009 BKN032 BKN042 69 66     90%     29.92   0    
Jun 23 01:06 E 8 8 Light Rain FEW014 BKN028 BKN042 69 66     90%     29.93   0    
Jun 23 01:00 ENE 9 3 Thunderstorms and Rain and Fog/Mist FEW014 BKN033 OVC050 69 66     90%     29.93   0    
Jun 23 00:57 ENE 10 1.75 Thunderstorms and Heavy Rain and Fog/Mist FEW018 BKN031 OVC050 69 66     90%     29.94   0    
Jun 23 00:52 NNE 11 1.25 Thunderstorms and Heavy Rain and Fog/Mist FEW013 BKN020 OVC030 69 66     90%     29.94 29.91 1   2
Jun 23 00:48 NNE 11 1.75 Thunderstorms and Heavy Rain and Fog/Mist BKN017 BKN030 OVC038 70 66     88%     29.96   1    
Jun 23 00:41 NNE 9 3 Thunderstorms and Rain and Fog/Mist SCT019 BKN026 OVC050 69 66     90%     29.97   0    
Jun 23 00:38 NE 8 1.5 Thunderstorms and Rain and Fog/Mist SCT022 BKN036 OVC055 69 66     90%     29.97   0    
Jun 23 00:31 N 10 1 Thunderstorms and Heavy Rain and Fog/Mist SCT018 BKN038 OVC065 69 66     90%     29.97   0    
Jun 23 00:28 NNW 10 1.75 Thunderstorms and Heavy Rain and Fog/Mist SCT018 BKN037 OVC065 69 66     90%     29.98   0    
Jun 23 00:21 WNW 9 10 Thunderstorms SCT037 BKN044 OVC065 69 66     90%     29.97   0    
Jun 23 00:12 NE 5 9 Light Rain FEW022 SCT040 OVC060 69 66     90%     29.95   0    
Jun 23 00:00 NE 5 4 Heavy Rain and Fog/Mist FEW023 BKN037 OVC055 69 66     90%     29.96   0    
Jun 22 23:52 ENE 6 2.5 Rain and Fog/Mist FEW023 BKN033 OVC055 69 65     87%     29.96 29.93 1    
Jun 22 23:47 ESE 6 1.25 Heavy Rain and Fog/Mist FEW025 OVC030 70 64     83%     29.97   1    
Jun 22 23:42 Calm 1 Heavy Rain and Fog/Mist BKN032 OVC055 69 65     87%     29.96   1    
Jun 22 23:33 3 1.25 Heavy Rain and Fog/Mist BKN034 OVC055 69 66     90%     29.97   1    
Jun 22 23:22 Calm 1 Thunderstorms and Heavy Rain and Fog/Mist OVC032 70 66     87%     29.95   1    
Jun 22 23:19 WNW 3 1.5 Thunderstorms and Heavy Rain and Fog/Mist OVC032 70 66     87%     29.94   1    
Jun 22 23:15 W 6 1 Thunderstorms and Heavy Rain and Fog/Mist BKN030 OVC048 70 66     87%     29.94   0    
Jun 22 23:03 WNW 13 1.25 Thunderstorms and Heavy Rain and Fog/Mist FEW015 BKN028 OVC048 70 66     87%     29.93   0    
Jun 22 22:56 W 11 1.5 Thunderstorms and Heavy Rain FEW015 BKN026 OVC048 71 66     84%   72 29.94   0    
Jun 22 22:52 W 10 2 Thunderstorms and Heavy Rain FEW015 BKN038 OVC050 71 66     84%   72 29.93 29.9 0    
Jun 22 22:41 WNW 14 10 Thunderstorms and Rain FEW029 BKN045 OVC070 73 65     76%   74 29.92   0    
Jun 22 22:30   10 Light Rain SCT032 BKN070 BKN110 77 65     66%   78 29.92   0    
Jun 22 21:52 S 17 10 Light Rain SCT110 79 71     77%   82 29.82 29.78 0 0  
Jun 22 21:42 S 18 10 Light Rain FEW090 SCT110 80 70     71%   83 29.81   0    
Jun 22 20:52 S 14 10 Clear CLR 84 75     74%   92 29.79 29.75      
Jun 22 19:52 S 15 10 Partly Cloudy FEW038 FEW047 SCT055 85 75     72%   93 29.79 29.75      
Jun 22 18:52 S 17 10 Clear CLR 87 75     68%   97 29.77 29.73 0   0
Jun 22 17:52   10 Mostly Cloudy SCT026 SCT049 BKN070 86 76     72%   96 29.82 29.78      
Jun 22 16:52 SSE 13 10 Mostly Cloudy FEW027 BKN037 BKN070 86 76     72%   96 29.84 29.8      
Jun 22 15:52 SSE 15 10 Cloudy FEW025 BKN049 OVC060 86 76     72%   96 29.86 29.82      
Jun 22 14:52 S 14 10 Cloudy FEW022 OVC040 86 75     70%   95 29.87 29.83      
Jun 22 14:39 SSE 14 10 Cloudy SCT024 SCT030 OVC040 85 75     72%   93 29.87        
Jun 22 14:26 S 16 10 Cloudy BKN025 BKN030 OVC042 84 75     74%   92 29.87        
Jun 22 13:52 S 17 10 Cloudy SCT026 OVC039 86 75     70%   95 29.87 29.83      
Jun 22 12:52 S 16 10 Cloudy FEW024 OVC034 86 75     70%   95 29.88 29.83     0
Jun 22 12:18 S 17 10 Cloudy FEW023 OVC030 87 75     68%   97 29.87        
Jun 22 11:52 S 17 10 Mostly Cloudy BKN025 86 75     70%   95 29.87 29.82      
Jun 22 10:52 S 13 10 Cloudy OVC028 84 75     74%   92 29.87 29.83      
Jun 22 10:40 S 13 10 Mostly Cloudy BKN028 84 75     74%   92 29.87        
Jun 22 09:52 S 13 10 Clear CLR 81 71     72%   85 29.88 29.84 0 0  
Jun 22 08:52 SSE 11 10 Light Rain FEW041 77 67     71%   78 29.87 29.83 0    
Jun 22 07:52 SE 8 10 Light Rain CLR 71 66     84%   72 29.86 29.82 0    
Jun 22 06:52 E 5 10 Partly Cloudy FEW046 SCT070 70 65     84%     29.85 29.81 0   0
Jun 22 06:48 E 6 10 Partly Cloudy FEW046 SCT065 70 64     83%     29.85   0    
Jun 22 06:33 N 6 8 Light Rain FEW040 BKN049 OVC070 70 64     81%     29.86   0    
Jun 22 05:52 SSE 6 10 Cloudy OVC044 80 75     85%   85 29.84 29.8      
Jun 22 04:52 SSE 7 10 Cloudy FEW023 SCT029 OVC040 80 74     82%   85 29.82 29.78      
Jun 22 03:52 S 6 10 Cloudy OVC030 81 74     79%   86 29.81 29.77      
Jun 22 02:52 W 5 10 Partly Cloudy SCT037 81 74     79%   86 29.8 29.76      
Jun 22 01:52 S 13 10 Clear CLR 82 74     77%   88 29.78 29.73      
Jun 22 00:52 S 15 10 Clear CLR 82 74     77%   88 29.78 29.74      
Jun 21 23:52 SSE 15 10 Clear CLR 83 74     74%   89 29.77 29.73      
Jun 21 22:52 S 13 10 Clear CLR 83 74     74%   89 29.76 29.72      
Notice The following observation data may not be complete
May 15 02:24   10 Light Rain OVC110          %         0    
May 15 02:09   8 Thunderstorms and Rain SCT090 OVC110 64 64     100%     29.99   0    
May 14 20:13 E 10 10 Thunderstorms SCT017 68 66     93%     29.85   0    
May 14 19:52   0.75 Thunderstorms and Heavy Rain and Fog/Mist OVC021 68 66     93%     29.84 29.81 1    
May 13 14:52 S 18 10 Clear CLR 87 71     59%   93 29.94 29.9      
May 13 11:52 S 17 10 Clear CLR 84 70     63%   88 29.98 29.95      
May 11 10:52   10 Clear CLR 78 64     62%   79 29.8 29.77      
Jun 12 00:52 S 11 10 Clear CLR 75 65     71%   76 29.9 29.86      
Jun 11 15:52   10 Clear CLR 89 68     50%   93 29.84 29.8      
Jun 11 13:52   10 Clear CLR 89 69     52%   94 29.87 29.83      
Jun 11 11:52   10 Clear CLR 86 67     53%   89 29.87 29.83      
Jun 10 06:52 SSE 8 10 Mostly Clear FEW035 66 61     84%     29.85 29.82      
Jun 10 02:52 S 9 10 Clear CLR 67 58     73%     29.83 29.79      
Jun 08 16:52 SSE 8 10 Clear CLR 82 52     35%   81 29.96 29.93      
Jun 07 23:52 Calm 10 Clear CLR 58 51     78%     30.05 30.03